Weather History for Tillamook, OR

Change the Weather History Date:

Tuesday, February 5, 2013

  Actual Average (KMMV) Record (KMMV)
Temperature  
Mean Temperature 50 °F 42 °F  
Max Temperature 53 °F 49 °F 62 °F (1961)
Min Temperature 46 °F 35 °F 9 °F (1989)
Degree Days  
Heating Degree Days 16 23  
Month to date heating degree days 115  
Since 1 July heating degree days 2870  
Cooling Degree Days 0 0  
Month to date cooling degree days 0  
Year to date cooling degree days 0  
Moisture  
Dew Point 44 °F    
Average Humidity 82    
Maximum Humidity 93    
Minimum Humidity 71    
Precipitation  
Precipitation 0.28 in 0.20 in 1.23 in (1940)
Month to date precipitation 1.03  
Year to date precipitation 7.13  
Sea Level Pressure  
Sea Level Pressure 29.95 in    
Wind  
Wind Speed 9 mph (South)    
Max Wind Speed 17 mph    
Max Gust Speed 28 mph    
Visibility 9 miles    
Events Rain    
T = Trace of Precipitation, MM = Missing Value Source: NWS Daily Summary

Daily Weather History Graph

Daily Weather History Graph

Search for Another Location

Airport:

Trip Planner

Search our weather history database for the weather conditions in past years. The results will help you decide how hot, cold, wet, or windy it might be!

Date:

Astronomy

Feb. 05, 2013 Rise Set
Actual Time 8:30 AM MST 6:28 PM MST
Civil Twilight 7:59 AM MST 6:59 PM MST
Nautical Twilight 7:24 AM MST 7:34 PM MST
Astronomical Twilight 6:49 AM MST 8:09 PM MST
Moon 4:24 AM MST (2/5) 1:45 PM MST (2/5)
Length of Visible Light 11h 00m
Length of Day
9h 57m
Waning Crescent, 26% of the Moon is Illuminated
Feb 5
Waning Crescent
Feb 10
New
Feb 17
First Quarter
Feb 25
Full
Mar 4
Last Quarter

Hourly Weather History & Observations

Time (MST) Temp. Windchill Dew Point Humidity Pressure Visibility Wind Dir Wind Speed Gust Speed Precip Events Conditions
12:15 AM 48.2 °F - 41.0 °F 76% 29.96 in 10.0 mi SSW 9.2 mph - N/A   Overcast
12:35 AM 48.2 °F - 41.0 °F 76% 29.96 in 10.0 mi South 12.7 mph - N/A   Overcast
12:55 AM 50.0 °F - 41.0 °F 71% 29.96 in 10.0 mi South 12.7 mph 20.7 mph N/A   Overcast
1:15 AM 50.0 °F - 41.0 °F 71% 29.96 in 10.0 mi South 11.5 mph 20.7 mph N/A   Overcast
1:35 AM 48.2 °F - 41.0 °F 76% 29.96 in 10.0 mi South 9.2 mph - N/A   Overcast
1:55 AM 48.2 °F - 41.0 °F 76% 29.96 in 10.0 mi South 6.9 mph - N/A   Overcast
2:15 AM 48.2 °F - 41.0 °F 76% 29.96 in 10.0 mi South 5.8 mph - N/A   Light Drizzle
2:35 AM 48.2 °F - 42.8 °F 82% 29.96 in 10.0 mi SE 5.8 mph - N/A   Overcast
2:55 AM 48.2 °F - 41.0 °F 76% 29.95 in 10.0 mi SE 6.9 mph - N/A   Light Drizzle
3:15 AM 48.2 °F - 41.0 °F 76% 29.93 in 10.0 mi SE 10.4 mph - N/A   Overcast
3:35 AM 48.2 °F - 42.8 °F 82% 29.94 in 7.0 mi SSW 8.1 mph - N/A   Light Drizzle
3:55 AM 48.2 °F - 42.8 °F 82% 29.93 in 7.0 mi South 6.9 mph - N/A Rain Light Rain
4:15 AM 46.4 °F 42.4 °F 42.8 °F 87% 29.93 in 5.0 mi SSE 8.1 mph - N/A Rain Light Rain
4:35 AM 46.4 °F 42.9 °F 44.6 °F 93% 29.93 in 7.0 mi SE 6.9 mph - 0.01 in Rain Rain
4:55 AM 46.4 °F 43.5 °F 44.6 °F 93% 29.93 in 7.0 mi SSE 5.8 mph - 0.02 in Rain Rain
5:15 AM 46.4 °F 41.5 °F 44.6 °F 93% 29.93 in 5.0 mi SSE 10.4 mph - 0.03 in Rain Rain
5:35 AM 46.4 °F 41.5 °F 44.6 °F 93% 29.92 in 7.0 mi SE 10.4 mph - 0.05 in Rain Light Rain
5:55 AM 46.4 °F 41.9 °F 44.6 °F 93% 29.91 in 10.0 mi SE 9.2 mph - 0.06 in Rain Light Rain
6:15 AM 48.2 °F - 44.6 °F 87% 29.91 in 10.0 mi SSE 10.4 mph - N/A Rain Light Rain
6:35 AM 48.2 °F - 44.6 °F 87% 29.91 in 10.0 mi South 9.2 mph - 0.01 in Rain Rain
6:55 AM 48.2 °F - 44.6 °F 87% 29.90 in 7.0 mi SSE 4.6 mph - 0.03 in   Drizzle
7:15 AM 48.2 °F - 44.6 °F 87% 29.90 in 10.0 mi SE 4.6 mph - 0.01 in   Overcast
7:35 AM 48.2 °F - 44.6 °F 87% 29.91 in 10.0 mi South 5.8 mph - 0.01 in Rain Light Rain
7:55 AM 48.2 °F - 44.6 °F 87% 29.90 in 7.0 mi SE 5.8 mph - 0.03 in Rain Light Rain
8:15 AM 48.2 °F - 46.4 °F 93% 29.91 in 10.0 mi SE 4.6 mph - N/A   Light Drizzle
8:35 AM 48.2 °F - 44.6 °F 87% 29.91 in 10.0 mi South 4.6 mph - N/A Rain Light Rain
8:55 AM 48.2 °F - 46.4 °F 93% 29.91 in 10.0 mi Calm Calm - 0.01 in Rain Light Rain
9:15 AM 48.2 °F - 46.4 °F 93% 29.91 in 10.0 mi South 9.2 mph - N/A   Overcast
9:35 AM 50.0 °F - 46.4 °F 87% 29.92 in 10.0 mi South 9.2 mph 18.4 mph N/A   Mostly Cloudy
9:55 AM 50.0 °F - 46.4 °F 87% 29.92 in 10.0 mi South 9.2 mph - N/A   Mostly Cloudy
10:15 AM 50.0 °F - 46.4 °F 87% 29.92 in 10.0 mi South 11.5 mph - N/A   Overcast
10:35 AM 50.0 °F - 46.4 °F 87% 29.92 in 10.0 mi South 9.2 mph - N/A   Overcast
10:55 AM 51.8 °F - 46.4 °F 82% 29.92 in 10.0 mi South 10.4 mph 19.6 mph N/A   Mostly Cloudy
11:15 AM 51.8 °F - 46.4 °F 82% 29.93 in 7.0 mi South 10.4 mph 18.4 mph N/A   Overcast
11:35 AM 51.8 °F - 46.4 °F 82% 29.93 in 7.0 mi South 10.4 mph 16.1 mph N/A Rain Light Rain
11:55 AM 53.6 °F - 46.4 °F 77% 29.94 in 10.0 mi SSW 17.3 mph 27.6 mph N/A   Mostly Cloudy
12:15 PM 53.6 °F - 46.4 °F 77% 29.94 in 10.0 mi South 15.0 mph - N/A   Mostly Cloudy
12:35 PM 53.6 °F - 46.4 °F 77% 29.95 in 10.0 mi SSW 15.0 mph 21.9 mph N/A   Mostly Cloudy
12:55 PM 51.8 °F - 44.6 °F 76% 29.94 in 10.0 mi South 12.7 mph 21.9 mph N/A   Overcast
1:15 PM 51.8 °F - 44.6 °F 76% 29.94 in 10.0 mi South 15.0 mph 20.7 mph N/A   Overcast
1:35 PM 51.8 °F - 44.6 °F 76% 29.94 in 10.0 mi SSW 13.8 mph 24.2 mph N/A   Mostly Cloudy
1:55 PM 53.6 °F - 44.6 °F 72% 29.93 in 7.0 mi SSW 13.8 mph 20.7 mph N/A   Mostly Cloudy
2:15 PM 51.8 °F - 44.6 °F 76% 29.93 in 7.0 mi South 11.5 mph 25.3 mph N/A   Overcast
2:35 PM 53.6 °F - 44.6 °F 72% 29.93 in 7.0 mi South 17.3 mph 23.0 mph N/A   Overcast
2:55 PM 51.8 °F - 42.8 °F 71% 29.93 in 10.0 mi South 11.5 mph 19.6 mph N/A   Overcast
3:15 PM 51.8 °F - 44.6 °F 76% 29.93 in 10.0 mi South 13.8 mph 18.4 mph N/A   Overcast
3:35 PM 53.6 °F - 44.6 °F 72% 29.92 in 7.0 mi SSW 15.0 mph 19.6 mph N/A   Overcast
3:55 PM 51.8 °F - 44.6 °F 76% 29.93 in 7.0 mi South 15.0 mph 24.2 mph N/A Rain Light Rain
4:15 PM 50.0 °F - 44.6 °F 82% 29.94 in 10.0 mi South 9.2 mph 19.6 mph N/A Rain Light Rain
4:35 PM 50.0 °F - 44.6 °F 82% 29.95 in 10.0 mi SSW 4.6 mph - N/A   Overcast
4:55 PM 50.0 °F - 44.6 °F 82% 29.95 in 10.0 mi South 12.7 mph - N/A   Overcast
5:15 PM 50.0 °F - 44.6 °F 82% 29.95 in 10.0 mi SSW 6.9 mph - N/A   Overcast
5:35 PM 50.0 °F - 44.6 °F 82% 29.96 in 10.0 mi SSW 4.6 mph - N/A   Overcast
5:55 PM 50.0 °F - 44.6 °F 82% 29.96 in 10.0 mi SSW 10.4 mph 17.3 mph N/A   Overcast
6:15 PM 50.0 °F - 44.6 °F 82% 29.96 in 10.0 mi SW 8.1 mph - N/A   Overcast
6:35 PM 50.0 °F - 44.6 °F 82% 29.96 in 7.0 mi SSW 6.9 mph - N/A   Overcast
6:55 PM 50.0 °F - 44.6 °F 82% 29.96 in 7.0 mi SSW 8.1 mph - N/A   Overcast
7:15 PM 50.0 °F - 44.6 °F 82% 29.96 in 5.0 mi SSW 11.5 mph 17.3 mph 0.02 in Rain Heavy Rain
7:35 PM 48.2 °F - 44.6 °F 87% 29.97 in 10.0 mi SW 10.4 mph 16.1 mph 0.08 in   Overcast
7:55 PM 50.0 °F - 44.6 °F 82% 29.97 in 7.0 mi SSW 8.1 mph - 0.08 in Rain Light Rain
8:15 PM 48.2 °F - 44.6 °F 87% 29.98 in 10.0 mi South 6.9 mph - N/A   Overcast
8:35 PM 48.2 °F - 44.6 °F 87% 29.98 in 7.0 mi Calm Calm - 0.02 in Rain Heavy Rain
8:55 PM 48.2 °F - 44.6 °F 87% 29.99 in 7.0 mi SSW 12.7 mph 20.7 mph 0.04 in Rain Light Rain
9:15 PM 48.2 °F - 42.8 °F 82% 30.00 in 10.0 mi South 9.2 mph - N/A   Overcast
9:35 PM 48.2 °F - 42.8 °F 82% 30.00 in 7.0 mi SSW 9.2 mph 17.3 mph 0.01 in Rain Rain
9:55 PM 46.4 °F 41.9 °F 42.8 °F 87% 30.01 in 10.0 mi SSE 9.2 mph 17.3 mph 0.01 in   Overcast
10:15 PM 46.4 °F 41.9 °F 42.8 °F 87% 30.02 in 10.0 mi SSE 9.2 mph - N/A   Overcast
10:35 PM 46.4 °F 42.4 °F 42.8 °F 87% 30.02 in 10.0 mi SSE 8.1 mph - N/A   Overcast
10:55 PM 48.2 °F - 42.8 °F 82% 30.02 in 10.0 mi South 6.9 mph - N/A   Overcast
11:15 PM 48.2 °F - 42.8 °F 82% 30.02 in 7.0 mi South 9.2 mph - N/A   Drizzle
11:35 PM 48.2 °F - 44.6 °F 87% 30.03 in 10.0 mi South 6.9 mph - N/A   Overcast